SCP
-0 -0 -0 -0 -0 -0 -1 -1 -1 -1 -1 -0 -0 -0 -0 -0 -0 0 0 0 0 -0 -0 -0 0 0 -0 -0 -0 -0 -0 -0 0 0 0 0 0 0 0 0 0 0 0
-0 -1 -0 -0 -0 -0 -1 -1 -1 -1 -1 -0 -0 -0 -0 -0 0 0 0 0 0 -0 -0 -0 -0 -0 -0 -0 -0 -0 -0 0 0 0 0 0 0 0 0 0 0 0 0
-0 -1 -0 -0 -0 -0 -0 -1 -1 -1 -1 -0 -0 -0 -0 -0 0 0 0 0 0 0 -0 -0 0 -0 -0 -0 -0 0 0 0 0 0 0 0 0 0 0 0 0 0 0
-0 -0 -0 -0 -0 -1 -0 -0 -1 -2 -1 -1 -0 -0 -0 0 0 0 0 0 0 0 0 0 0 0 0 0 0 0 0 0 0 0 0 0 0 0 0 0 0 0 0
-0 -0 -0 -0 -0 -0 -0 -1 -1 -1 -1 -1 -1 -0 -0 0 0 0 0 0 0 0 0 0 0 0 0 0 0 0 0 0 0 0 0 0 0 0 0 0 0 0 0
0 0 -0 -0 -0 0 -0 -0 -0 -0 -0 -0 -0 -0 -0 0 0 0 0 0 0 -0 -0 -0 0 0 0 0 0 0 0 0 0 0 0 0 0 0 0 0 0 0 0
0 0 0 0 0 0 0 0 0 0 -0 -0 -0 -0 0 0 0 0 0 0 0 0 -0 -0 0 0 0 0 0 0 0 0 0 0 0 0 0 0 0 0 0 0 0
1 1 1 1 1 0 0 0 0 0 0 -0 -0 0 0 0 0 0 0 0 0 0 -0 0 0 0 0 0 0 0 0 0 0 0 0 0 0 0 0 1 1 1 0
0 1 1 1 1 1 0 0 0 0 0 -0 -0 0 0 0 0 0 0 0 0 -0 -0 -0 0 0 0 0 0 0 0 0 0 0 0 0 0 0 0 0 1 1 1
0 0 1 1 1 0 0 1 0 0 0 -0 -0 -0 -0 -0 -0 -0 -0 -0 -0 -0 -0 -0 -0 0 0 0 0 0 0 0 0 0 0 0 0 0 0 0 1 1 1
0 0 1 1 1 1 0 0 1 0 0 0 -0 -0 -0 -0 -0 -0 -0 -0 -0 -0 -0 -0 -0 -0 -0 -0 -0 -0 -0 -0 0 0 0 0 0 0 0 0 1 1 1
0 1 1 1 1 1 1 1 0 0 0 0 0 -0 -0 -0 -0 -0 -0 -0 -0 -0 -0 -0 -0 0 -0 -0 -0 -0 -0 0 -0 -0 -0 0 0 0 0 0 0 1 1
0 1 1 2 2 1 1 1 1 1 1 0 0 0 -0 -0 -0 -0 -0 0 0 0 0 0 0 -0 -0 -0 -0 -0 -0 -0 -0 -0 -0 0 0 0 0 0 0 0 1
0 0 0 1 2 3 3 1 1 2 1 1 1 0 0 0 0 0 0 0 0 0 0 0 0 0 0 -0 -0 -0 -0 -0 -0 -0 0 0 0 0 0 0 0 1 1
1 1 1 1 3 4 4 3 2 2 2 1 1 1 1 0 0 0 0 0 0 0 0 0 0 0 0 0 0 0 0 -0 -0 0 0 0 0 0 0 0 0 1 1
1 1 1 2 3 3 4 4 4 4 2 2 2 1 1 1 1 0 0 0 0 0 0 0 0 0 0 0 0 0 0 0 0 0 0 0 0 0 0 0 0 1 2
1 2 1 2 2 3 4 4 4 4 3 3 3 3 2 1 1 1 0 0 0 0 0 0 0 0 0 0 0 0 0 0 0 0 0 0 0 0 0 0 0 1 1
0 1 1 2 1 2 3 5 5 3 3 3 3 3 3 2 2 2 1 1 0 0 0 0 0 0 0 0 1 1 1 0 0 0 0 0 -0 -0 -0 0 0 1 1
0 1 1 2 2 2 3 4 4 5 4 3 4 4 3 2 2 2 2 1 1 1 1 0 0 0 0 1 1 1 1 1 1 0 0 0 0 -0 -0 -0 -0 0 0
0 0 2 2 2 2 3 3 2 2 3 3 3 3 3 3 2 3 2 3 2 1 1 1 0 0 1 1 1 1 1 1 1 1 0 0 0 -0 -1 -1 -1 -0 0
0 0 1 3 4 4 4 4 3 3 3 3 3 2 2 3 3 4 4 3 3 2 1 1 1 1 1 1 1 1 1 1 1 1 1 2 1 0 -0 -2 -2 -0 -0
0 0 0 2 5 7 5 5 5 3 3 2 2 2 2 1 1 2 4 4 2 2 2 2 2 1 1 2 2 1 2 2 1 1 1 1 1 0 0 -0 0 0 -0
0 0 0 1 4 7 7 6 7 6 5 3 3 2 3 2 2 1 2 3 4 3 3 4 4 5 4 3 2 5 2 2 2 1 1 0 0 0 0 1 1 0 -0
0 0 0 0 2 4 6 8 7 9 7 5 4 4 4 4 3 2 3 3 3 5 5 4 6 6 6 8 2 1 2 2 1 1 2 1 1 1 0 0 0 0 -0
0 0 0 0 1 2 4 6 10 9 6 7 7 5 6 4 3 3 3 4 4 4 3 3 2 1 1 0 0 1 1 1 1 1 0 0 0 1 -0 0 0 0 1
0 0 0 0 0 1 3 3 5 8 7 7 7 7 6 6 6 5 4 4 5 4 4 3 1 0 0 0 0 0 1 1 1 0 0 0 1 0 -0 -0 0 1 1
Wind_Speed_500mb
47 48 55 57 55 53 49 47 45 44 47 46 41 34 26 26 32 35 36 36 34 31 28 25 24 24 23 24 25 27 29 30 29 28 29 29 29 29 27 24 21 18 17
48 50 54 57 56 52 48 45 44 48 50 48 41 33 27 27 31 34 35 34 33 30 27 26 25 24 24 24 24 25 25 23 23 26 26 25 25 28 25 25 22 20 20
47 52 54 55 55 51 47 43 47 52 53 48 41 33 27 29 32 34 34 33 31 29 27 25 24 23 22 21 21 21 21 20 20 20 20 20 20 23 25 26 24 24 23
46 51 55 53 53 50 46 43 46 53 53 49 42 33 31 34 35 34 33 32 31 29 27 24 22 21 20 19 18 17 16 17 16 16 16 15 16 19 22 25 26 26 23
46 50 55 53 53 50 48 46 46 52 55 52 45 38 35 36 36 36 34 32 31 29 26 24 22 20 18 16 14 13 12 11 11 12 12 13 11 11 15 18 22 24 23
47 50 52 55 53 52 49 49 50 53 54 52 48 44 44 43 40 38 37 34 30 26 23 22 21 19 17 15 11 9 7 6 5 6 8 9 7 4 7 11 13 16 19
52 54 52 55 55 52 49 48 51 54 55 53 48 45 46 46 44 41 37 34 30 26 22 19 17 15 14 12 9 7 4 1 2 5 6 5 6 2 1 5 8 11 13
43 51 54 54 54 52 49 47 49 53 55 55 51 50 49 45 42 39 38 34 30 27 23 18 14 12 9 7 5 4 3 1 2 5 8 8 10 5 5 4 6 9 11
43 47 52 55 56 54 50 49 50 54 56 57 56 56 53 49 45 42 38 34 30 26 22 17 14 12 9 6 2 3 4 2 3 5 9 10 8 5 5 6 10 12 13
44 47 52 56 58 58 56 51 50 52 55 59 60 58 53 50 47 43 39 35 30 25 21 18 14 12 9 7 5 5 7 7 4 5 6 7 7 7 9 10 14 16 17
47 50 55 58 61 62 60 57 54 53 55 58 60 59 55 53 50 45 42 35 30 26 22 18 15 12 9 8 7 7 8 9 7 8 9 9 7 8 11 15 16 18 18
51 54 59 63 66 67 66 63 62 61 62 63 64 63 60 57 53 48 42 37 31 26 23 19 15 11 11 11 9 6 5 4 6 7 9 11 12 14 15 17 18 17 17
51 58 64 64 69 70 72 71 70 69 70 71 69 65 62 60 57 51 45 40 36 31 26 20 15 14 16 14 11 10 7 3 4 4 7 11 14 18 16 18 16 14 14
56 60 65 68 71 72 76 76 76 76 76 75 73 70 67 62 59 54 49 45 40 35 28 22 17 14 13 12 14 12 7 3 6 10 10 13 16 20 21 18 17 14 14
62 60 65 70 73 76 78 81 82 83 82 79 76 74 71 68 63 57 54 48 43 38 32 26 21 17 16 17 15 13 10 11 11 12 14 15 17 21 20 20 20 17 15
53 61 61 73 77 77 82 82 82 84 84 84 82 80 76 71 66 63 59 52 47 42 36 30 25 25 23 23 22 19 15 15 15 17 18 18 17 19 20 22 23 20 19
45 52 62 64 78 77 80 87 89 87 88 88 88 83 79 75 70 65 60 55 51 46 41 37 32 29 27 27 26 24 22 22 22 17 19 23 23 19 18 25 28 28 25
54 60 53 61 68 73 77 84 87 87 88 90 90 88 84 79 74 69 65 59 53 46 44 42 39 40 36 34 30 27 29 28 24 20 26 29 20 12 13 26 31 32 32
50 57 70 59 62 58 71 79 85 84 83 87 92 91 86 78 71 68 64 60 54 53 50 47 48 48 45 40 37 34 32 31 26 19 18 14 12 13 25 41 28 30 30
45 62 68 73 73 69 74 82 87 90 89 87 88 89 82 67 62 71 67 60 56 62 58 54 53 50 46 46 41 38 34 32 25 20 13 3 15 19 32 53 43 43 35
51 59 76 81 82 86 86 87 91 91 87 88 88 85 69 78 85 93 75 68 59 65 67 60 50 49 46 43 37 30 28 28 21 17 13 1 8 11 29 47 62 63 60
54 53 76 83 91 96 97 92 93 89 87 85 89 82 63 73 79 81 71 73 60 49 67 71 60 51 49 44 28 26 11 14 19 13 23 25 21 27 36 46 55 56 73
57 54 51 78 81 100 102 103 96 89 79 85 89 75 68 69 75 74 70 64 58 62 58 50 52 54 45 38 34 26 10 9 15 10 12 17 27 34 39 51 44 46 64
67 66 58 55 78 90 102 105 102 97 89 87 84 76 66 72 65 61 61 60 60 67 70 65 59 49 43 38 37 41 29 29 12 19 31 40 48 51 62 66 68 55 63
68 70 68 56 59 86 101 103 101 98 84 84 81 69 66 66 68 65 67 67 66 66 68 72 65 82 58 54 51 69 41 31 33 39 44 56 68 71 81 72 74 74 65
66 68 65 61 52 65 88 98 98 98 90 82 77 62 64 66 66 66 66 69 67 65 70 76 77 69 90 129 105 91 59 34 39 51 46 53 58 76 67 69 68 68 54
Wind_Direction_500mb
182 180 175 175 177 177 177 173 169 169 166 161 156 154 156 147 142 139 140 141 139 137 134 131 129 125 119 111 109 107 106 107 99 92 86 79 73 69 69 68 63 54 56
178 177 175 175 177 178 177 174 172 172 168 165 165 163 162 149 145 141 143 141 141 140 137 134 128 124 119 114 113 115 110 103 96 85 79 73 73 72 67 65 66 57 51
179 176 177 177 178 178 177 175 172 171 170 170 172 170 161 154 151 147 145 143 142 142 140 134 127 122 119 117 114 114 109 99 89 85 77 74 66 65 64 62 57 54 46
184 180 179 181 181 182 181 181 177 175 174 175 179 175 167 160 156 152 149 147 145 144 140 136 129 124 123 121 115 107 96 91 87 84 70 65 62 54 56 56 53 50 45
188 188 183 185 185 187 186 185 183 180 180 181 182 179 172 166 160 157 155 154 152 148 143 137 134 131 127 121 116 108 102 98 84 73 58 48 55 57 56 53 51 47 42
186 191 188 188 190 192 192 190 190 189 188 189 186 183 174 169 166 165 162 159 157 151 148 144 140 136 132 124 123 115 96 78 52 41 46 39 37 70 71 53 45 42 39
184 188 191 191 194 196 198 197 196 194 193 195 193 186 179 174 172 169 168 165 161 157 153 150 145 139 133 127 127 121 116 90 1 324 329 318 342 335 343 49 28 19 21
188 190 192 194 198 200 202 204 201 198 196 196 194 188 182 180 178 177 173 171 166 162 157 158 154 147 140 141 152 157 167 167 335 328 323 304 312 303 321 326 334 340 342
194 197 196 198 199 202 206 209 205 203 199 197 194 190 186 184 184 183 181 179 173 168 165 168 167 163 160 161 203 275 283 311 328 345 342 319 291 260 281 306 317 314 310
198 204 204 202 203 204 205 210 210 206 203 198 195 192 190 189 189 188 188 185 180 175 176 178 183 181 182 192 211 250 270 276 257 287 322 329 294 278 278 293 310 308 295
204 208 209 209 209 207 208 207 207 206 203 200 197 196 196 196 195 194 193 192 189 185 186 189 199 203 208 223 240 253 260 253 240 267 287 298 292 286 293 300 308 304 296
210 212 213 213 213 209 209 208 206 204 202 201 203 202 201 200 201 200 199 197 198 198 199 203 215 232 243 244 245 228 221 224 223 247 270 281 291 296 292 293 299 301 298
219 218 216 217 218 213 210 208 208 207 207 204 204 206 206 205 204 205 204 204 206 209 211 216 228 252 257 241 220 200 197 201 247 268 300 304 305 299 296 293 293 297 306
225 231 223 222 223 218 215 213 212 211 210 210 208 207 210 210 211 209 208 211 213 216 220 227 236 244 238 211 193 198 206 237 310 317 319 313 307 298 297 296 292 290 310
247 241 232 229 228 225 221 218 216 216 214 214 213 213 212 213 214 215 215 216 220 225 227 231 236 229 226 220 209 215 237 261 281 302 317 317 315 305 301 298 293 296 305
253 247 242 235 234 231 227 225 224 221 222 220 218 217 216 217 219 220 220 221 224 229 235 241 246 235 231 240 241 246 253 266 275 295 309 313 309 306 310 309 302 290 289
257 256 252 246 238 236 233 230 227 225 225 227 226 224 222 220 222 225 231 229 230 233 240 242 243 248 246 254 256 258 264 268 279 302 320 322 303 291 301 323 310 295 284
270 260 254 248 241 236 235 234 234 233 228 231 233 230 228 228 225 226 230 237 241 241 247 253 255 258 256 256 261 266 274 275 283 306 332 322 297 303 352 349 320 301 282
268 263 252 248 245 239 235 234 234 235 236 235 237 237 235 234 236 235 236 243 244 248 249 250 256 261 264 263 263 264 269 274 285 309 335 1 34 64 43 22 2 340 301
278 254 257 247 250 243 233 228 230 232 235 235 239 240 238 234 245 255 250 248 252 256 255 255 257 262 268 273 268 264 270 279 279 293 283 32 35 54 31 15 15 2 344
278 263 241 247 251 244 236 229 228 230 233 235 238 242 235 225 223 230 247 246 245 253 258 255 259 265 263 264 270 270 274 280 265 274 291 115 70 20 356 348 349 346 341
281 277 244 240 244 243 243 235 231 231 234 237 239 241 235 226 226 231 230 231 241 251 253 247 252 254 259 256 250 276 262 266 262 238 284 288 311 351 337 318 318 322 327
287 280 271 243 243 241 237 235 233 231 234 233 236 235 227 220 226 227 237 242 244 241 246 244 253 242 244 257 257 250 229 201 285 254 327 329 328 343 325 319 312 322 323
282 281 286 270 242 241 240 235 233 233 233 237 238 233 218 215 219 225 239 245 248 245 244 254 244 247 240 241 258 251 248 238 230 279 288 298 308 312 308 317 313 314 314
282 279 278 278 256 242 237 237 237 235 234 237 239 231 222 217 216 232 238 245 252 257 256 253 264 261 253 259 265 275 252 241 236 258 283 298 296 292 305 310 308 303 302
281 272 274 271 269 245 239 238 238 236 233 233 234 230 221 219 223 231 238 244 246 246 250 252 254 252 245 244 254 248 267 259 279 280 278 293 291 300 300 305 303 296 283
Wind_Speed_850mb
47 48 55 57 55 53 49 47 45 44 47 46 41 34 26 26 32 35 36 36 34 31 28 25 24 24 23 24 25 27 29 30 29 28 29 29 29 29 27 24 21 18 17
48 50 54 57 56 52 48 45 44 48 50 48 41 33 27 27 31 34 35 34 33 30 27 26 25 24 24 24 24 25 25 23 23 26 26 25 25 28 25 25 22 20 20
47 52 54 55 55 51 47 43 47 52 53 48 41 33 27 29 32 34 34 33 31 29 27 25 24 23 22 21 21 21 21 20 20 20 20 20 20 23 25 26 24 24 23
46 51 55 53 53 50 46 43 46 53 53 49 42 33 31 34 35 34 33 32 31 29 27 24 22 21 20 19 18 17 16 17 16 16 16 15 16 19 22 25 26 26 23
46 50 55 53 53 50 48 46 46 52 55 52 45 38 35 36 36 36 34 32 31 29 26 24 22 20 18 16 14 13 12 11 11 12 12 13 11 11 15 18 22 24 23
47 50 52 55 53 52 49 49 50 53 54 52 48 44 44 43 40 38 37 34 30 26 23 22 21 19 17 15 11 9 7 6 5 6 8 9 7 4 7 11 13 16 19
52 54 52 55 55 52 49 48 51 54 55 53 48 45 46 46 44 41 37 34 30 26 22 19 17 15 14 12 9 7 4 1 2 5 6 5 6 2 1 5 8 11 13
43 51 54 54 54 52 49 47 49 53 55 55 51 50 49 45 42 39 38 34 30 27 23 18 14 12 9 7 5 4 3 1 2 5 8 8 10 5 5 4 6 9 11
43 47 52 55 56 54 50 49 50 54 56 57 56 56 53 49 45 42 38 34 30 26 22 17 14 12 9 6 2 3 4 2 3 5 9 10 8 5 5 6 10 12 13
44 47 52 56 58 58 56 51 50 52 55 59 60 58 53 50 47 43 39 35 30 25 21 18 14 12 9 7 5 5 7 7 4 5 6 7 7 7 9 10 14 16 17
47 50 55 58 61 62 60 57 54 53 55 58 60 59 55 53 50 45 42 35 30 26 22 18 15 12 9 8 7 7 8 9 7 8 9 9 7 8 11 15 16 18 18
51 54 59 63 66 67 66 63 62 61 62 63 64 63 60 57 53 48 42 37 31 26 23 19 15 11 11 11 9 6 5 4 6 7 9 11 12 14 15 17 18 17 17
51 58 64 64 69 70 72 71 70 69 70 71 69 65 62 60 57 51 45 40 36 31 26 20 15 14 16 14 11 10 7 3 4 4 7 11 14 18 16 18 16 14 14
56 60 65 68 71 72 76 76 76 76 76 75 73 70 67 62 59 54 49 45 40 35 28 22 17 14 13 12 14 12 7 3 6 10 10 13 16 20 21 18 17 14 14
62 60 65 70 73 76 78 81 82 83 82 79 76 74 71 68 63 57 54 48 43 38 32 26 21 17 16 17 15 13 10 11 11 12 14 15 17 21 20 20 20 17 15
53 61 61 73 77 77 82 82 82 84 84 84 82 80 76 71 66 63 59 52 47 42 36 30 25 25 23 23 22 19 15 15 15 17 18 18 17 19 20 22 23 20 19
45 52 62 64 78 77 80 87 89 87 88 88 88 83 79 75 70 65 60 55 51 46 41 37 32 29 27 27 26 24 22 22 22 17 19 23 23 19 18 25 28 28 25
54 60 53 61 68 73 77 84 87 87 88 90 90 88 84 79 74 69 65 59 53 46 44 42 39 40 36 34 30 27 29 28 24 20 26 29 20 12 13 26 31 32 32
50 57 70 59 62 58 71 79 85 84 83 87 92 91 86 78 71 68 64 60 54 53 50 47 48 48 45 40 37 34 32 31 26 19 18 14 12 13 25 41 28 30 30
45 62 68 73 73 69 74 82 87 90 89 87 88 89 82 67 62 71 67 60 56 62 58 54 53 50 46 46 41 38 34 32 25 20 13 3 15 19 32 53 43 43 35
51 59 76 81 82 86 86 87 91 91 87 88 88 85 69 78 85 93 75 68 59 65 67 60 50 49 46 43 37 30 28 28 21 17 13 1 8 11 29 47 62 63 60
54 53 76 83 91 96 97 92 93 89 87 85 89 82 63 73 79 81 71 73 60 49 67 71 60 51 49 44 28 26 11 14 19 13 23 25 21 27 36 46 55 56 73
57 54 51 78 81 100 102 103 96 89 79 85 89 75 68 69 75 74 70 64 58 62 58 50 52 54 45 38 34 26 10 9 15 10 12 17 27 34 39 51 44 46 64
67 66 58 55 78 90 102 105 102 97 89 87 84 76 66 72 65 61 61 60 60 67 70 65 59 49 43 38 37 41 29 29 12 19 31 40 48 51 62 66 68 55 63
68 70 68 56 59 86 101 103 101 98 84 84 81 69 66 66 68 65 67 67 66 66 68 72 65 82 58 54 51 69 41 31 33 39 44 56 68 71 81 72 74 74 65
66 68 65 61 52 65 88 98 98 98 90 82 77 62 64 66 66 66 66 69 67 65 70 76 77 69 90 129 105 91 59 34 39 51 46 53 58 76 67 69 68 68 54
Wind_Direction_850mb
182 180 175 175 177 177 177 173 169 169 166 161 156 154 156 147 142 139 140 141 139 137 134 131 129 125 119 111 109 107 106 107 99 92 86 79 73 69 69 68 63 54 56
178 177 175 175 177 178 177 174 172 172 168 165 165 163 162 149 145 141 143 141 141 140 137 134 128 124 119 114 113 115 110 103 96 85 79 73 73 72 67 65 66 57 51
179 176 177 177 178 178 177 175 172 171 170 170 172 170 161 154 151 147 145 143 142 142 140 134 127 122 119 117 114 114 109 99 89 85 77 74 66 65 64 62 57 54 46
184 180 179 181 181 182 181 181 177 175 174 175 179 175 167 160 156 152 149 147 145 144 140 136 129 124 123 121 115 107 96 91 87 84 70 65 62 54 56 56 53 50 45
188 188 183 185 185 187 186 185 183 180 180 181 182 179 172 166 160 157 155 154 152 148 143 137 134 131 127 121 116 108 102 98 84 73 58 48 55 57 56 53 51 47 42
186 191 188 188 190 192 192 190 190 189 188 189 186 183 174 169 166 165 162 159 157 151 148 144 140 136 132 124 123 115 96 78 52 41 46 39 37 70 71 53 45 42 39
184 188 191 191 194 196 198 197 196 194 193 195 193 186 179 174 172 169 168 165 161 157 153 150 145 139 133 127 127 121 116 90 1 324 329 318 342 335 343 49 28 19 21
188 190 192 194 198 200 202 204 201 198 196 196 194 188 182 180 178 177 173 171 166 162 157 158 154 147 140 141 152 157 167 167 335 328 323 304 312 303 321 326 334 340 342
194 197 196 198 199 202 206 209 205 203 199 197 194 190 186 184 184 183 181 179 173 168 165 168 167 163 160 161 203 275 283 311 328 345 342 319 291 260 281 306 317 314 310
198 204 204 202 203 204 205 210 210 206 203 198 195 192 190 189 189 188 188 185 180 175 176 178 183 181 182 192 211 250 270 276 257 287 322 329 294 278 278 293 310 308 295
204 208 209 209 209 207 208 207 207 206 203 200 197 196 196 196 195 194 193 192 189 185 186 189 199 203 208 223 240 253 260 253 240 267 287 298 292 286 293 300 308 304 296
210 212 213 213 213 209 209 208 206 204 202 201 203 202 201 200 201 200 199 197 198 198 199 203 215 232 243 244 245 228 221 224 223 247 270 281 291 296 292 293 299 301 298
219 218 216 217 218 213 210 208 208 207 207 204 204 206 206 205 204 205 204 204 206 209 211 216 228 252 257 241 220 200 197 201 247 268 300 304 305 299 296 293 293 297 306
225 231 223 222 223 218 215 213 212 211 210 210 208 207 210 210 211 209 208 211 213 216 220 227 236 244 238 211 193 198 206 237 310 317 319 313 307 298 297 296 292 290 310
247 241 232 229 228 225 221 218 216 216 214 214 213 213 212 213 214 215 215 216 220 225 227 231 236 229 226 220 209 215 237 261 281 302 317 317 315 305 301 298 293 296 305
253 247 242 235 234 231 227 225 224 221 222 220 218 217 216 217 219 220 220 221 224 229 235 241 246 235 231 240 241 246 253 266 275 295 309 313 309 306 310 309 302 290 289
257 256 252 246 238 236 233 230 227 225 225 227 226 224 222 220 222 225 231 229 230 233 240 242 243 248 246 254 256 258 264 268 279 302 320 322 303 291 301 323 310 295 284
270 260 254 248 241 236 235 234 234 233 228 231 233 230 228 228 225 226 230 237 241 241 247 253 255 258 256 256 261 266 274 275 283 306 332 322 297 303 352 349 320 301 282
268 263 252 248 245 239 235 234 234 235 236 235 237 237 235 234 236 235 236 243 244 248 249 250 256 261 264 263 263 264 269 274 285 309 335 1 34 64 43 22 2 340 301
278 254 257 247 250 243 233 228 230 232 235 235 239 240 238 234 245 255 250 248 252 256 255 255 257 262 268 273 268 264 270 279 279 293 283 32 35 54 31 15 15 2 344
278 263 241 247 251 244 236 229 228 230 233 235 238 242 235 225 223 230 247 246 245 253 258 255 259 265 263 264 270 270 274 280 265 274 291 115 70 20 356 348 349 346 341
281 277 244 240 244 243 243 235 231 231 234 237 239 241 235 226 226 231 230 231 241 251 253 247 252 254 259 256 250 276 262 266 262 238 284 288 311 351 337 318 318 322 327
287 280 271 243 243 241 237 235 233 231 234 233 236 235 227 220 226 227 237 242 244 241 246 244 253 242 244 257 257 250 229 201 285 254 327 329 328 343 325 319 312 322 323
282 281 286 270 242 241 240 235 233 233 233 237 238 233 218 215 219 225 239 245 248 245 244 254 244 247 240 241 258 251 248 238 230 279 288 298 308 312 308 317 313 314 314
282 279 278 278 256 242 237 237 237 235 234 237 239 231 222 217 216 232 238 245 252 257 256 253 264 261 253 259 265 275 252 241 236 258 283 298 296 292 305 310 308 303 302
281 272 274 271 269 245 239 238 238 236 233 233 234 230 221 219 223 231 238 244 246 246 250 252 254 252 245 244 254 248 267 259 279 280 278 293 291 300 300 305 303 296 283